Details From KCRE - Grand Strand
To KEWN - Craven Co Rgnl
Flight Number -
Tags Decoded
Created
Modified
Stats Distance 114 nm / 211 km
Max Altitude 0 ft / 0 m
Waypoints 4
Social Downloads 2
Likes 0
Share VATSIM

Download

Looking for another format? Having issues loading an existing format? Contact us
Advertisement - Login to hide

Notes

Decoded

Route

KCRE ILM KUYEN KEWN

ID Type Via Altitude Latitude Longitude Leg Dist Tot Dist Heading (true) Name
O KCRE APT - 0 ft / 0 m 33.80603˚ -78.73105˚ - 0 nm - -
ILM VOR - 0 ft / 0 m 34.35167˚ -77.87439˚ 53 nm 53 nm 52° / 53° WILMINGTON VORTAC
KUYEN FIX - 0 ft / 0 m 34.91181˚ -77.15900˚ 48 nm 102 nm 46° / 47° -
O KEWN APT - 0 ft / 0 m 35.07704˚ -77.04787˚ 11 nm 113 nm 29° / 29° -

Altitude Profile

Advertisement - Login to hide

KCRE

Details ICAO KCRE
Name Grand Strand
Region United States
Timezone America/New_York (UTC-4.0)
Stats Elevation 32 ft / 10 m (AMSL)
Location 33.811749° -78.723941°
Runways 1
Magnetic Variation 8.884° W

METAR

KCRE 220053Z AUTO 20008KT 10SM CLR 24/22 A3013 RMK AO1 SLP204 T02440222

Decode

TAF

TAF KCRE 212320Z 2200/2224 19011KT P6SM FEW030 SCT080 FM220100 21007KT P6SM SCT040 SCT150 BKN200 TEMPO 2208/2212 1SM BR SCT005 BKN015 FM221300 23004KT P6SM BKN020 FM221500 19009KT P6SM BKN035

Decode

Departure Runways

ID Width Length Bearing (true) Bearing (mag) Surface Threshold Offset Overrun Length
05 98 ft / 30 m 5,998 ft / 1,828 m 45.94° 54.82° Asphalt 0 ft / 0 m 0 ft / 0 m
23 98 ft / 30 m 5,998 ft / 1,828 m 225.94° 234.82° Asphalt 0 ft / 0 m 0 ft / 0 m

KEWN

Details ICAO KEWN (EWN)
Name Craven Co Rgnl
Region United States
Timezone America/New_York (UTC-4.0)
Stats Elevation 18 ft / 5 m (AMSL)
Location 35.073096° -77.042880°
Runways 2
Magnetic Variation 10.100° W

METAR

KEWN 220054Z 19003KT 9SM CLR 22/22 A3013 RMK AO2 SLP203 T02220217

Decode

TAF

KEWN 212340Z 2200/2224 VRB04KT P6SM BKN100 FM220900 VRB04KT P6SM SCT005 BKN015 TEMPO 2209/2212 5SM BR BKN005 FM221200 23004KT P6SM SCT005 BKN020 FM221400 23010KT P6SM SCT200

Decode

Destination Runways

ID Width Length Bearing (true) Bearing (mag) Surface Threshold Offset Overrun Length
04 150 ft / 46 m 6,008 ft / 1,831 m 30.60° 40.70° Asphalt 0 ft / 0 m 0 ft / 0 m
13 150 ft / 46 m 3,999 ft / 1,219 m 128.07° 138.17° Asphalt 0 ft / 0 m 0 ft / 0 m
22 150 ft / 46 m 6,008 ft / 1,831 m 210.61° 220.71° Asphalt 0 ft / 0 m 0 ft / 0 m
31 150 ft / 46 m 3,999 ft / 1,219 m 308.07° 318.17° Asphalt 0 ft / 0 m 0 ft / 0 m

Approach Navaids

Runway Type Ident Frequency Range Bearing (true) Bearing (mag) Slope Elevation
04 Localiser IEWN 110.50 MHz 18 nm / 33 km 30.60° 40.70° - 18 ft / 5 m (AMSL)
04 Glidescope IEWN 110.50 MHz 10 nm / 19 km 30.60° 40.70° 3.00° 15 ft / 5 m (AMSL)